Regional Weather Roundup
Issued by NWS

Home | Current Version | Previous Version | Graphics & Text | Print | Product List | Glossary On
Versions: 1 2 3 4 5 6 7 8 9 10 11 12 13 14 15 16 17 18 19 20 21 22 23 24 25 26 27 28 29 30 31 32 33 34 35 36 37 38 39 40 41 42 43 44 45 46 47 48 49 50
000
ASUS43 KBIS 291010
RWRND

NORTH DAKOTA REGIONAL WEATHER ROUNDUP
NATIONAL WEATHER SERVICE BISMARCK ND
500 AM CDT FRI AUG 29 2014

NOTE: "FAIR" INDICATES FEW OR NO CLOUDS BELOW 12,000 FEET WITH NO
SIGNIFICANT WEATHER AND/OR OBSTRUCTIONS TO VISIBILITY.


NDZ001>003-009>011-017-291100-
NORTHWEST NORTH DAKOTA

CITY           SKY/WX    TMP DP  RH WIND       PRES   REMARKS
WILLISTON      MOCLDY    62  54  74 N12G23    29.86S
MINOT          CLEAR     63  59  87 NW14      29.76R
MINOT AFB      CLEAR     64  63  97 NW17      29.76R
$$

NDZ018>021-031>035-040>046-291100-
SOUTHWEST NORTH DAKOTA

CITY           SKY/WX    TMP DP  RH WIND       PRES   REMARKS
BISMARCK       CLOUDY    63  63 100 S5        29.80F
DICKINSON      PTCLDY    63  55  75 NW18      29.84R
GARRISON         N/A     64  62  93 NW8       29.79R
HETTINGER ARPT PTCLDY    54  53  97 CALM      29.84F FOG
$$

NDZ004>008-012>016-024-026-027-054-291100-
NORTHEAST NORTH DAKOTA

CITY           SKY/WX    TMP DP  RH WIND       PRES   REMARKS
GRAND FORKS    CLOUDY    67  64  90 S8        29.77S
GRND FRKS AFB  CLOUDY    66  66 100 SW8       29.79S
DEVILS LAKE    CLOUDY    66  61  82 S13       29.76S
$$

NDZ022-023-025-028>030-036>039-047>053-291100-
SOUTHEAST NORTH DAKOTA

CITY           SKY/WX    TMP DP  RH WIND       PRES   REMARKS
FARGO          CLOUDY    66  64  93 CALM      29.77F
JAMESTOWN      FOG       65  64  97 SW6       29.79S VSB 1
$$



USA.gov is the U.S. government's official web portal to all federal, state and local government web resources and services.